Weather History for Cheraw, SC

Change the Weather History Date:

Saturday, March 23, 2013

  Actual Average (KFLO) Record (KFLO)
Temperature  
Mean Temperature 41 °F 58 °F  
Max Temperature 50 °F 70 °F 88 °F (1995)
Min Temperature 32 °F 45 °F 24 °F (1996)
Degree Days  
Heating Degree Days 24 8  
Month to date heating degree days 250  
Since 1 July heating degree days 2316  
Cooling Degree Days 0 1  
Month to date cooling degree days 10  
Year to date cooling degree days 16  
Moisture  
Dew Point 36 °F    
Average Humidity 80    
Maximum Humidity 100    
Minimum Humidity 52    
Precipitation  
Precipitation 0.01 in 0.10 in 1.64 in (1989)
Month to date precipitation 2.49  
Year to date precipitation 8.64  
Sea Level Pressure  
Sea Level Pressure 30.00 in    
Wind  
Wind Speed - (North)    
Max Wind Speed -    
Max Gust Speed -    
Visibility 10 miles    
Events Rain    
T = Trace of Precipitation, MM = Missing Value Source: NWS Daily Summary

Daily Weather History Graph

Daily Weather History Graph

Search for Another Location

Airport:

Trip Planner

Search our weather history database for the weather conditions in past years. The results will help you decide how hot, cold, wet, or windy it might be!

Date:

Astronomy

Mar. 23, 2013 Rise Set
Actual Time 7:19 AM EDT 7:34 PM EDT
Civil Twilight 6:53 AM EDT 7:59 PM EDT
Nautical Twilight 6:24 AM EDT 8:28 PM EDT
Astronomical Twilight 5:54 AM EDT 8:58 PM EDT
Moon 4:06 PM EDT (3/23) 4:46 AM EDT (3/23)
Length of Visible Light 13h 05m
Length of Day
12h 15m
Waxing Gibbous, 85% of the Moon is Illuminated
Mar 23
Waxing Gibbous
Mar 27
Full
Apr 3
Last Quarter
Apr 10
New
Apr 18
First Quarter

Hourly Weather History & Observations

Time (EDT) Temp. Dew Point Humidity Pressure Visibility Wind Dir Wind Speed Gust Speed Precip Events Conditions
12:15 AM 35.6 °F 24.8 °F 65% 30.05 in 10.0 mi North - - N/A   Clear
12:35 AM 39.2 °F 23.0 °F 52% 30.05 in 10.0 mi North - - N/A   Clear
12:55 AM 37.4 °F 24.8 °F 60% 30.04 in 10.0 mi North - - N/A   Clear
1:15 AM 35.6 °F 28.4 °F 75% 30.04 in 10.0 mi North - - N/A   Mostly Cloudy
1:35 AM 39.2 °F 24.8 °F 56% 30.04 in 10.0 mi North - - N/A   Overcast
1:55 AM 37.4 °F 26.6 °F 65% 30.03 in 10.0 mi North - - N/A   Overcast
2:15 AM 37.4 °F 26.6 °F 65% 30.03 in 10.0 mi North - - N/A   Mostly Cloudy
2:35 AM 37.4 °F 28.4 °F 70% 30.03 in 10.0 mi North - - N/A   Mostly Cloudy
2:55 AM 35.6 °F 28.4 °F 75% 30.03 in 10.0 mi North - - N/A   Partly Cloudy
3:15 AM 33.8 °F 26.6 °F 75% 30.02 in 10.0 mi North - - N/A   Clear
3:35 AM 33.8 °F 28.4 °F 81% 30.01 in 10.0 mi North - - N/A   Clear
3:55 AM 32.0 °F 26.6 °F 80% 30.02 in 10.0 mi North - - N/A   Clear
4:15 AM 33.8 °F 30.2 °F 87% 30.02 in 10.0 mi North - - N/A   Partly Cloudy
4:35 AM 37.4 °F 28.4 °F 70% 30.01 in 10.0 mi North - - N/A   Partly Cloudy
4:55 AM 35.6 °F 30.2 °F 81% 30.01 in 10.0 mi North - - N/A   Scattered Clouds
5:15 AM 35.6 °F 30.2 °F 81% 30.01 in 10.0 mi North - - N/A   Scattered Clouds
5:35 AM 35.6 °F 28.4 °F 75% 30.01 in 10.0 mi North - - N/A   Scattered Clouds
5:55 AM 35.6 °F 32.0 °F 87% 30.01 in 10.0 mi North - - N/A   Mostly Cloudy
6:15 AM 35.6 °F 32.0 °F 87% 30.01 in 10.0 mi North - - N/A   Mostly Cloudy
6:35 AM 35.6 °F 32.0 °F 87% 30.01 in 10.0 mi North - - N/A   Mostly Cloudy
6:55 AM 37.4 °F 32.0 °F 81% 30.01 in 10.0 mi North - - N/A   Overcast
7:15 AM 37.4 °F 32.0 °F 81% 30.02 in 10.0 mi North - - N/A   Overcast
7:35 AM 39.2 °F 32.0 °F 75% 30.02 in 10.0 mi North - - N/A   Overcast
7:55 AM 39.2 °F 32.0 °F 75% 30.03 in 10.0 mi North - - N/A   Overcast
8:15 AM 37.4 °F 33.8 °F 87% 30.03 in 10.0 mi North - - N/A Rain Light Rain
8:35 AM 37.4 °F 35.6 °F 93% 30.04 in 10.0 mi North - - N/A Rain Light Rain
8:55 AM 39.2 °F 35.6 °F 87% 30.06 in 10.0 mi North - - N/A Rain Light Rain
9:15 AM 39.2 °F 35.6 °F 87% 30.06 in 7.0 mi North - - N/A Rain Light Rain
9:35 AM 39.2 °F 35.6 °F 87% 30.06 in 6.0 mi North - - 0.01 in Rain Light Rain
9:55 AM 39.2 °F 37.4 °F 93% 30.06 in 5.0 mi North - - 0.01 in Rain Light Rain
10:15 AM 39.2 °F 37.4 °F 93% 30.06 in 6.0 mi North - - N/A Rain Light Rain
10:35 AM 39.2 °F 37.4 °F 93% 30.06 in 6.0 mi North - - N/A Rain Light Rain
10:55 AM 39.2 °F 37.4 °F 93% 30.05 in 6.0 mi North - - N/A Rain Light Rain
11:15 AM 41.0 °F 39.2 °F 93% 30.05 in 7.0 mi North - - N/A Rain Light Rain
11:35 AM 41.0 °F 39.2 °F 93% 30.06 in 8.0 mi North - - N/A   Overcast
11:55 AM 41.0 °F 39.2 °F 93% 30.06 in 7.0 mi North - - N/A   Overcast
12:15 PM 41.0 °F 39.2 °F 93% 30.04 in 7.0 mi North - - N/A   Overcast
12:35 PM 41.0 °F 39.2 °F 93% 30.04 in 8.0 mi North - - N/A   Overcast
12:55 PM 41.0 °F 39.2 °F 93% 30.03 in 8.0 mi North - - N/A   Overcast
1:15 PM 41.0 °F 39.2 °F 93% 30.02 in 10.0 mi North - - N/A   Overcast
1:35 PM 42.8 °F 39.2 °F 87% 30.02 in 10.0 mi North - - N/A   Overcast
1:55 PM 44.6 °F 39.2 °F 81% 30.02 in 10.0 mi North - - N/A   Mostly Cloudy
2:15 PM 44.6 °F 35.6 °F 71% 30.02 in 10.0 mi North - - N/A   Mostly Cloudy
2:35 PM 44.6 °F 37.4 °F 76% 30.00 in 10.0 mi North - - N/A   Overcast
2:55 PM 44.6 °F 37.4 °F 76% 29.99 in 10.0 mi North - - N/A   Overcast
3:15 PM 46.4 °F 37.4 °F 71% 29.98 in 10.0 mi North - - N/A   Overcast
3:35 PM 46.4 °F 37.4 °F 71% 29.97 in 10.0 mi North - - N/A   Overcast
3:55 PM 46.4 °F 39.2 °F 76% 29.96 in 10.0 mi North - - N/A   Overcast
4:15 PM 50.0 °F 39.2 °F 66% 29.95 in 10.0 mi North - - N/A   Mostly Cloudy
4:35 PM 50.0 °F 41.0 °F 71% 29.96 in 10.0 mi North - - N/A   Overcast
4:55 PM 48.2 °F 41.0 °F 76% 29.95 in 10.0 mi North - - N/A   Overcast
5:15 PM 50.0 °F 41.0 °F 71% 29.93 in 10.0 mi North - - N/A   Overcast
5:35 PM 50.0 °F 41.0 °F 71% 29.92 in 10.0 mi North - - N/A   Overcast
5:55 PM 48.2 °F 41.0 °F 76% 29.92 in 10.0 mi North - - N/A   Overcast
6:15 PM 50.0 °F 41.0 °F 71% 29.92 in 10.0 mi North - - N/A   Overcast
6:35 PM 50.0 °F 41.0 °F 71% 29.91 in 10.0 mi North - - N/A   Overcast
6:55 PM 48.2 °F 41.0 °F 76% 29.93 in 10.0 mi North - - N/A   Overcast
7:15 PM 48.2 °F 41.0 °F 76% 29.93 in 10.0 mi North - - N/A   Overcast
7:35 PM 48.2 °F 41.0 °F 76% 29.95 in 10.0 mi North - - N/A   Overcast
7:55 PM 48.2 °F 41.0 °F 76% 29.95 in 10.0 mi North - - N/A   Overcast
8:15 PM 48.2 °F 41.0 °F 76% 29.97 in 10.0 mi North - - N/A   Overcast
8:35 PM 48.2 °F 41.0 °F 76% 29.98 in 10.0 mi North - - N/A   Overcast
8:55 PM 48.2 °F 44.6 °F 87% 29.99 in 10.0 mi North - - N/A   Overcast
9:15 PM 48.2 °F 42.8 °F 82% 29.98 in 10.0 mi North - - N/A   Mostly Cloudy
9:35 PM 48.2 °F 42.8 °F 82% 29.96 in 10.0 mi North - - N/A   Mostly Cloudy
9:55 PM 46.4 °F 44.6 °F 93% 29.96 in 10.0 mi North - - N/A   Overcast
10:15 PM 46.4 °F 42.8 °F 87% 29.96 in 10.0 mi North - - N/A   Mostly Cloudy
10:35 PM 46.4 °F 42.8 °F 87% 29.95 in 10.0 mi North - - N/A   Overcast
10:55 PM 44.6 °F 41.0 °F 87% 29.94 in 10.0 mi North - - N/A   Scattered Clouds
11:15 PM 42.8 °F 41.0 °F 93% 29.93 in 10.0 mi North - - N/A   Clear
11:35 PM 41.0 °F 39.2 °F 93% 29.93 in 10.0 mi North - - N/A   Clear
11:55 PM 41.0 °F 41.0 °F 100% 29.92 in 10.0 mi North - - N/A   Clear